Date,TemperatureHighF,TemperatureAvgF,TemperatureLowF,DewpointHighF,DewpointAvgF,DewpointLowF,HumidityHigh,HumidityAvg,HumidityLow,PressureMaxIn,PressureMinIn,WindSpeedMaxMPH,WindSpeedAvgMPH,GustSpeedMaxMPH,PrecipitationSumIn
2013-3-3,68.5,65.1,58.6,50.8,45.6,36.2,67,50,32,29.78,29.61,24,8,24,0.00
2013-3-4,73.0,66.5,60.6,67.7,55.5,45.0,99,71,38,29.78,29.70,14,3,14,0.00
2013-3-5,78.3,65.6,57.2,67.8,61.6,54.0,99,89,51,29.82,29.67,10,2,10,0.00
2013-3-6,77.7,66.8,59.4,73.6,57.1,38.8,99,78,25,29.85,29.75,9,2,9,0.00
2013-3-7,80.8,70.0,63.5,72.0,66.7,63.2,99,91,62,29.85,29.77,9,2,9,0.00
2013-3-8,56.3,56.3,56.3,51.2,50.7,50.1,83,82,80,29.97,29.97,2,1,2,0.46
2013-3-9,74.3,62.3,49.5,52.6,48.6,28.9,86,64,22,30.00,29.92,7,3,11,0.00
2013-3-10,80.8,66.3,56.5,58.0,52.1,45.4,91,65,32,29.95,29.83,12,3,14,0.00
2013-3-11,79.5,68.2,56.7,60.3,56.5,49.2,99,70,38,29.88,29.65,12,3,12,0.00
2013-3-12,70.0,64.0,59.2,68.6,59.6,51.7,99,86,72,29.84,29.62,15,6,15,0.31
2013-3-13,65.5,61.4,57.7,52.5,43.7,31.8,75,54,36,29.98,29.83,18,9,19,0.00
2013-3-14,61.3,60.7,59.2,52.3,45.7,32.1,73,60,39,29.98,29.96,15,8,15,0.00
2013-3-15,64.8,55.8,42.6,48.1,39.4,20.0,93,59,19,30.08,29.96,11,3,11,0.00
2013-3-16,75.2,60.3,46.8,60.1,48.0,33.0,99,71,22,29.98,29.86,8,2,8,0.00
2013-3-17,75.7,63.8,52.9,62.8,56.7,52.6,99,81,48,29.91,29.78,5,2,5,0.00
2013-3-18,77.2,69.1,61.5,67.8,63.7,59.6,97,84,71,29.81,29.64,10,2,10,0.00
2013-3-19,82.8,69.3,62.1,69.3,64.6,61.1,99,87,50,29.79,29.67,11,2,11,0.00
2013-3-20,73.2,66.3,58.8,68.3,64.3,58.5,99,94,67,29.76,29.59,18,3,20,0.33
2013-3-21,63.3,58.8,50.9,60.5,41.0,22.9,99,57,26,29.79,29.67,16,5,16,0.01
2013-3-22,78.3,57.7,47.5,47.3,42.4,27.6,94,65,24,29.79,29.68,10,2,12,0.00
2013-3-23,83.8,73.1,63.9,74.8,70.1,63.6,99,91,69,29.75,29.57,12,3,12,0.00
2013-3-24,79.9,73.7,68.7,76.3,72.8,68.4,99,97,83,29.59,29.43,17,5,17,0.00
2013-3-25,69.1,61.1,57.9,68.6,46.1,34.2,99,60,39,29.84,29.52,21,11,21,0.00
2013-3-26,60.6,54.3,50.9,42.6,34.5,28.3,56,49,39,30.04,29.83,24,11,24,0.00
2013-3-27,54.0,49.5,41.7,41.9,31.8,21.2,72,52,36,30.13,30.01,16,6,16,0.00
2013-3-28,64.4,55.4,43.2,47.0,35.6,17.3,88,55,21,30.09,29.99,14,4,14,0.00
2013-3-29,73.6,59.4,46.0,52.8,42.3,3.9,89,62,10,30.11,29.98,12,3,13,0.00
2013-3-30,76.1,62.6,49.8,58.2,48.5,24.2,90,66,19,30.04,29.92,14,3,15,0.00
2013-3-31,81.0,67.4,55.9,62.4,55.4,44.7,99,71,32,29.94,29.78,13,2,13,0.00
2013-4-1,79.7,71.6,66.4,69.6,65.7,61.3,99,82,66,29.82,29.73,13,4,13,0.00
2013-4-2,78.3,69.7,62.2,67.2,63.1,57.3,99,82,53,29.87,29.78,10,3,10,0.00
2013-4-3,84.6,72.5,63.7,70.2,64.6,60.7,99,79,49,29.86,29.72,9,2,9,0.09
2013-4-4,74.8,70.8,67.5,72.3,68.6,62.3,99,93,67,29.80,29.64,11,3,11,0.15
2013-4-5,70.9,66.9,60.4,67.5,62.7,54.8,99,87,68,29.79,29.58,18,7,19,0.11
2013-4-6,73.8,63.6,53.8,63.4,54.9,50.0,89,75,48,29.90,29.78,16,6,16,0.00
2013-4-7,81.7,69.3,58.6,63.0,58.0,49.1,99,71,36,29.93,29.83,10,3,11,0.00
2013-4-8,86.7,72.6,62.8,66.6,59.3,46.4,94,68,28,29.91,29.82,10,3,10,0.00
2013-4-9,87.3,74.5,63.5,67.5,62.3,56.4,99,70,39,29.93,29.84,9,2,12,0.00
2013-4-10,89.6,75.1,63.3,66.0,61.7,51.5,93,66,31,29.89,29.75,11,3,11,0.00
2013-4-11,88.9,79.4,72.0,73.6,69.4,63.9,99,74,48,29.76,29.57,14,3,14,0.02
2013-4-12,79.9,76.6,72.3,77.2,73.3,69.0,99,90,77,29.69,29.53,21,3,21,0.01
2013-4-13,81.3,74.8,69.3,70.6,67.3,62.2,99,79,61,29.76,29.65,11,3,11,0.00
2013-4-14,88.7,75.2,68.7,73.8,66.7,59.2,92,76,51,29.79,29.62,27,5,30,0.06
2013-4-15,84.7,76.5,69.3,68.4,65.0,60.7,83,69,55,29.84,29.66,11,3,12,0.00
2013-4-16,91.4,79.3,68.7,72.3,67.4,61.9,99,71,41,29.91,29.80,12,3,12,0.00
2013-4-17,88.7,78.1,66.7,69.5,61.6,51.0,99,63,31,29.92,29.78,13,3,13,0.00
2013-4-18,90.5,78.1,67.8,72.0,66.2,59.5,99,70,39,29.83,29.72,11,2,13,0.00
2013-4-19,90.7,79.8,71.8,76.3,70.7,61.6,99,77,41,29.78,29.70,12,4,14,0.08
2013-4-20,78.4,67.3,59.5,73.8,61.8,56.4,96,83,67,29.94,29.75,17,6,19,0.17
2013-4-21,81.9,69.0,59.9,71.6,63.4,56.2,99,84,58,29.93,29.80,10,4,10,0.47
2013-4-22,80.1,71.1,65.8,71.3,66.2,61.9,99,86,61,29.86,29.76,16,5,16,0.02
2013-4-23,82.8,72.5,64.4,65.6,61.9,55.0,96,72,49,29.88,29.79,13,5,14,0.00
2013-4-24,86.0,72.3,61.5,67.1,61.2,49.5,99,72,32,29.92,29.85,11,3,11,0.00
2013-4-25,81.1,73.4,64.9,68.3,65.7,62.3,99,79,62,29.99,29.88,13,3,13,0.00
2013-4-26,86.5,76.1,68.0,70.0,66.6,60.5,94,74,45,30.02,29.92,11,3,11,0.00
2013-4-27,87.4,76.2,67.6,70.0,65.3,54.8,99,72,36,30.00,29.86,14,4,14,0.00
2013-4-28,89.1,76.2,65.8,67.6,63.6,51.2,98,69,31,29.90,29.74,12,2,12,0.00
2013-4-29,83.5,76.8,71.1,71.9,65.9,60.1,93,71,54,29.80,29.68,8,2,8,0.00
2013-4-30,88.5,76.8,68.0,72.4,68.7,61.3,99,79,43,29.78,29.68,13,3,13,0.67
2013-5-1,75.4,71.6,68.0,74.9,70.6,67.7,99,97,86,29.78,29.69,8,2,8,0.40
2013-5-2,79.3,72.4,65.5,72.1,68.8,65.0,99,90,72,29.76,29.59,10,3,10,0.13
2013-5-3,81.0,74.2,68.4,73.0,68.5,65.4,99,84,63,29.61,29.49,14,4,15,0.01
2013-5-4,73.2,70.3,68.9,69.2,67.2,65.5,96,90,84,29.55,29.47,8,3,8,0.00
2013-5-5,73.4,70.2,64.8,69.5,54.4,44.3,99,60,40,29.72,29.57,25,7,25,0.05
2013-5-6,72.0,69.3,66.7,66.3,55.4,49.8,91,63,49,29.81,29.67,14,5,14,0.02
2013-5-9,79.9,72.7,63.1,66.7,62.8,61.1,94,72,53,29.93,29.86,11,3,11,0.00
2013-5-10,89.2,76.6,64.8,72.0,66.0,56.4,99,73,33,29.91,29.77,6,2,6,0.00
2013-5-11,86.5,77.9,71.8,75.5,71.9,69.0,99,83,60,29.83,29.77,14,2,14,0.00
2013-5-12,83.3,76.4,70.7,74.5,69.5,67.2,99,80,60,29.82,29.71,11,3,11,0.00
2013-5-13,80.6,75.2,71.6,69.7,57.3,45.8,86,56,30,29.92,29.78,14,6,14,0.00
2013-5-14,81.1,71.9,59.0,81.1,42.5,16.2,66,35,10,30.00,29.91,14,6,14,0.00
2013-5-15,84.9,75.0,63.0,60.3,57.0,43.7,83,57,27,29.97,29.85,12,4,15,0.00
2013-5-16,84.9,75.6,66.9,68.7,62.4,55.9,90,67,41,29.91,29.78,11,3,11,0.00
2013-5-17,85.8,77.3,68.5,68.4,64.4,56.6,87,67,42,29.87,29.80,9,2,10,0.00
2013-5-18,88.5,77.7,69.4,72.7,69.8,66.1,96,78,55,29.89,29.80,11,2,13,0.00
2013-5-19,85.8,78.5,70.7,76.1,68.9,62.4,99,75,48,29.87,29.77,13,2,13,0.00
2013-5-20,91.6,80.1,73.0,72.4,67.8,60.0,93,69,45,29.84,29.74,17,3,17,0.00
2013-5-21,86.7,76.4,69.3,71.4,68.4,65.7,97,78,52,29.80,29.70,15,2,15,0.00
2013-5-22,84.9,77.2,70.0,74.2,70.0,67.4,99,81,59,29.75,29.67,14,3,14,0.00
2013-5-23,86.2,79.6,72.7,75.4,71.6,68.3,98,78,59,29.79,29.69,13,3,13,0.00
2013-5-24,87.6,81.8,77.2,75.2,71.2,62.1,90,72,46,29.86,29.75,14,5,14,0.00
2013-5-25,91.4,81.8,70.5,70.4,59.0,45.4,82,51,25,29.95,29.84,17,5,17,0.00
2013-5-26,89.4,77.8,65.3,60.3,47.9,12.6,82,45,10,29.99,29.88,12,4,14,0.00
2013-5-27,91.4,77.6,65.3,66.7,59.0,44.1,88,58,24,29.96,29.83,13,3,13,0.00
2013-5-28,93.9,79.9,68.4,71.7,66.5,60.2,94,68,38,29.92,29.79,14,4,14,0.00
2013-5-29,89.1,80.4,73.0,73.7,68.9,58.4,99,72,40,29.88,29.80,13,4,13,0.00
2013-5-30,89.6,80.0,73.8,75.8,70.5,65.0,99,76,47,29.86,29.77,16,5,16,0.00
2013-5-31,92.8,81.0,71.8,70.6,68.1,62.3,94,68,40,29.86,29.76,16,4,16,0.00
2013-6-1,90.1,79.7,73.0,78.4,72.5,67.8,99,81,50,29.83,29.71,11,3,11,0.00
2013-6-2,88.3,80.3,73.0,79.2,74.1,71.1,99,83,59,29.78,29.66,8,2,8,0.00
2013-6-3,89.1,81.2,75.9,79.9,74.5,69.1,99,82,55,29.78,29.67,8,2,8,0.00
2013-6-4,86.7,78.2,74.8,79.3,75.5,71.4,99,92,64,29.79,29.70,9,2,9,0.00
2013-6-5,83.8,77.0,73.9,78.7,75.3,72.7,99,95,76,29.78,29.66,7,2,8,0.00
2013-6-6,83.7,76.8,73.4,78.9,74.0,70.8,99,92,75,29.66,29.39,21,6,26,0.00
2013-6-7,87.3,81.2,76.1,76.4,73.6,69.2,99,79,60,29.73,29.55,9,2,9,0.00
2013-6-8,89.2,80.8,73.9,78.7,75.1,71.8,99,85,61,29.87,29.73,8,2,8,0.00
2013-6-9,93.9,80.2,73.4,78.9,74.3,68.5,99,85,48,29.87,29.78,10,2,10,0.00
2013-6-10,91.4,82.0,75.0,79.3,74.9,69.2,99,82,51,29.86,29.79,9,2,10,0.00
2013-6-11,89.8,82.4,76.3,78.3,75.2,69.4,99,80,56,29.86,29.79,11,2,14,0.00
2013-6-12,89.1,83.5,76.6,76.9,74.6,71.6,94,76,59,29.86,29.78,14,3,14,0.00
2013-6-13,90.9,83.5,77.5,78.8,74.2,68.4,99,76,52,29.83,29.68,9,2,10,0.00
2013-6-14,89.1,83.3,80.1,77.0,73.4,68.4,85,73,54,29.73,29.65,9,2,9,0.00
2013-6-15,88.5,83.5,79.3,78.1,76.5,71.4,90,80,66,29.83,29.68,11,2,11,0.00
2013-6-16,90.0,83.3,78.4,78.4,76.2,72.7,98,80,59,29.85,29.78,11,2,12,0.00
2013-6-17,94.3,84.6,76.6,80.8,74.2,66.2,99,74,46,29.85,29.76,8,2,8,0.00
2013-6-18,91.6,84.6,77.5,78.8,74.6,70.5,99,74,53,29.83,29.75,7,2,7,0.00
2013-6-19,91.2,84.1,76.3,82.0,75.6,72.6,99,77,58,29.81,29.75,13,2,15,0.00
2013-6-20,90.5,83.4,77.0,78.9,73.4,66.8,99,74,50,29.88,29.78,11,2,11,0.00
2013-6-21,90.5,78.4,73.8,78.0,73.6,68.1,99,86,54,29.89,29.80,9,2,9,0.00
2013-6-22,92.7,80.6,72.9,78.5,71.7,62.7,99,78,41,29.89,29.82,12,3,12,0.00
2013-6-23,91.6,81.1,74.8,78.9,74.1,67.1,99,82,48,29.91,29.83,17,3,17,0.00
2013-6-24,93.6,83.0,75.4,78.9,73.7,63.5,99,77,41,29.96,29.83,11,3,12,0.00
2013-6-25,93.6,84.1,76.5,78.4,73.5,64.3,99,74,43,29.92,29.80,11,3,11,0.00
2013-6-26,92.7,82.6,76.3,78.5,74.1,69.7,99,78,51,29.85,29.75,14,2,18,0.00
2013-6-27,92.7,83.0,73.9,77.7,73.8,71.3,99,76,52,29.84,29.72,11,2,11,0.00
2013-6-28,90.5,84.5,79.5,77.0,74.5,68.0,91,73,58,29.97,29.62,11,2,11,0.00
2013-6-29,83.8,80.9,73.4,79.5,75.2,71.2,99,83,74,29.66,29.57,11,2,11,0.35
2013-6-30,89.8,82.7,76.1,78.8,75.3,69.9,99,80,58,29.64,29.56,12,3,12,0.28
2013-7-1,81.0,77.3,73.8,79.6,76.5,73.3,99,98,88,29.77,29.60,8,2,8,0.28
2013-7-2,90.0,78.8,72.9,80.8,74.4,70.3,99,88,60,29.85,29.71,10,3,10,0.85
2013-7-3,89.8,78.2,73.9,79.3,75.1,71.2,99,92,57,29.89,29.79,11,3,19,0.54
2013-7-4,92.1,78.4,73.2,78.2,74.0,68.9,99,89,49,29.94,29.83,10,3,10,0.38
2013-7-5,91.0,78.0,72.1,80.6,75.2,71.2,99,93,55,29.91,29.83,16,3,16,0.44
2013-7-6,94.5,82.0,74.8,80.0,74.0,64.9,99,81,42,29.88,29.79,11,3,12,0.09
2013-7-7,94.5,83.3,75.2,78.9,74.0,65.9,99,78,42,29.91,29.79,12,3,12,0.00
2013-7-8,95.0,83.1,76.1,79.4,75.0,66.2,99,80,43,29.93,29.83,9,2,12,0.18
2013-7-9,93.0,83.3,75.6,78.0,74.1,64.6,99,77,43,29.94,29.82,17,3,17,0.00
2013-7-10,89.6,82.3,75.2,77.5,72.8,67.9,99,76,52,29.86,29.72,14,4,14,0.52
2013-7-11,89.4,80.9,74.7,81.4,74.8,69.2,99,84,55,29.80,29.69,6,2,7,0.00
2013-7-12,86.9,80.4,75.2,81.4,76.2,72.0,99,88,66,29.72,29.65,8,2,10,0.70
2013-7-13,89.4,78.3,75.2,79.9,76.1,72.1,99,94,59,29.75,29.67,12,2,14,0.22
2013-7-14,88.7,79.5,73.6,77.7,75.2,73.2,99,88,66,29.85,29.72,9,2,10,0.00
2013-7-15,90.9,81.0,73.4,77.1,72.7,59.6,99,79,48,29.89,29.78,14,4,14,0.00
2013-7-16,92.7,79.5,73.4,77.3,73.9,64.9,99,86,43,29.93,29.84,18,5,18,0.64
2013-7-17,93.6,79.8,74.3,78.8,73.3,67.3,99,83,46,29.94,29.84,16,4,16,0.00
2013-7-18,88.5,79.4,74.8,76.7,74.2,69.6,99,86,56,29.89,29.80,11,2,11,0.06
2013-7-19,85.6,76.8,74.3,80.2,75.7,71.8,99,96,73,29.90,29.82,15,2,15,0.52
2013-7-20,90.7,79.1,73.8,80.3,75.0,64.8,99,89,52,29.88,29.78,12,2,12,0.01
2013-7-21,91.4,82.8,74.7,81.1,76.3,73.2,99,83,59,29.89,29.80,10,2,10,0.00
2013-7-22,91.0,84.3,78.8,81.6,77.0,73.4,99,80,60,29.90,29.83,8,2,10,0.04
2013-7-23,87.8,81.0,75.0,81.2,75.7,70.2,99,85,64,29.87,29.74,15,2,15,1.37
2013-7-24,88.5,84.1,79.3,79.8,76.9,74.8,99,80,66,29.78,29.67,11,4,14,0.05
2013-7-25,89.6,83.9,78.6,79.8,76.7,73.1,99,80,64,29.77,29.64,14,4,14,0.25
2013-7-26,90.1,84.1,79.5,80.2,77.5,68.0,98,82,54,29.79,29.72,16,3,21,0.00
2013-7-27,89.4,84.5,79.5,80.5,75.7,70.2,99,77,57,29.78,29.70,11,3,12,0.00
2013-7-28,90.9,83.1,77.7,79.0,74.8,68.8,99,78,53,29.83,29.71,8,2,9,0.00
2013-7-29,92.3,83.6,75.6,77.9,74.0,67.9,99,76,49,29.92,29.80,9,2,11,0.00
2013-7-30,91.8,83.9,77.0,77.2,74.6,70.4,98,76,53,29.95,29.84,10,3,10,0.00
2013-7-31,93.6,82.9,75.9,77.4,74.5,68.0,99,78,48,29.91,29.78,9,3,9,0.07
2013-8-1,91.8,81.9,76.3,78.0,74.8,70.9,99,81,56,29.83,29.72,10,2,12,0.43
2013-8-2,90.7,83.3,75.4,77.0,75.1,72.5,99,78,59,29.81,29.71,11,2,14,0.00
2013-8-3,92.5,85.4,78.8,79.7,75.2,68.4,97,74,53,29.87,29.77,8,2,10,0.00
2013-8-4,90.1,85.5,78.8,80.3,76.0,74.0,96,74,62,29.86,29.76,11,2,11,0.01
2013-8-5,91.2,86.5,81.0,80.1,76.8,71.8,96,74,58,29.80,29.70,17,3,17,0.15
2013-8-6,93.9,83.7,78.3,80.7,76.7,73.0,99,81,55,29.77,29.66,11,2,11,0.27
2013-8-7,95.5,82.8,77.9,81.2,76.7,70.3,99,84,48,29.74,29.67,12,3,14,0.04
2013-8-8,95.0,83.0,77.5,79.8,75.6,68.9,99,81,49,29.80,29.70,8,2,8,0.17
2013-8-9,91.4,80.5,74.1,78.4,74.6,68.3,99,84,52,29.83,29.73,12,3,16,0.43
2013-8-10,95.2,83.8,74.5,78.2,73.6,64.1,99,76,39,29.89,29.80,11,3,11,0.01
2013-8-11,96.3,86.0,77.5,78.3,73.8,62.5,99,70,37,29.92,29.83,11,3,12,0.00
2013-8-12,95.0,85.6,78.3,80.6,76.7,70.2,99,77,48,29.90,29.77,14,3,14,0.12
2013-8-13,95.2,85.7,78.6,80.5,76.3,71.7,95,75,51,29.83,29.71,13,2,13,0.00
2013-8-14,93.0,86.2,81.0,80.0,75.5,68.6,94,72,48,29.78,29.68,9,2,9,0.00
2013-8-15,93.7,83.0,77.9,78.8,75.2,67.4,95,79,47,29.80,29.71,8,2,8,0.24
2013-8-16,91.8,85.3,81.0,78.1,74.2,66.6,90,71,47,29.81,29.74,11,2,11,0.00
2013-8-17,95.4,82.4,73.8,80.7,75.3,68.1,99,82,45,29.86,29.74,21,3,21,1.07
2013-8-18,93.6,81.4,75.2,80.3,75.6,69.6,99,85,49,29.86,29.78,11,3,11,0.45
2013-8-19,95.0,81.2,73.0,80.2,75.0,69.0,99,84,47,29.85,29.71,14,3,14,0.51
2013-8-20,93.0,79.9,72.9,79.8,74.3,69.6,99,86,51,29.86,29.76,21,3,21,0.50
2013-8-21,94.3,80.3,74.5,79.8,75.4,68.8,99,88,47,29.88,29.78,24,4,24,0.77
2013-8-22,91.8,80.9,74.1,79.1,76.0,71.0,99,87,55,29.85,29.75,18,4,21,0.37
2013-8-23,90.9,81.0,75.7,83.0,75.4,70.5,99,85,55,29.79,29.73,14,4,16,0.01
2013-8-24,91.9,79.4,74.1,79.7,75.9,72.1,99,90,56,29.90,29.76,17,3,17,0.69
2013-8-25,89.1,80.0,74.7,78.5,74.2,69.0,99,84,57,29.93,29.84,12,4,12,0.00
2013-8-26,91.8,81.4,74.8,77.8,74.6,68.1,99,83,49,29.93,29.78,18,6,18,0.18
2013-8-27,92.7,82.0,74.5,78.1,72.7,64.1,99,78,44,29.83,29.75,14,4,14,0.00
2013-8-28,90.9,82.1,73.9,75.3,71.1,62.8,98,73,43,29.83,29.74,12,3,12,0.00
2013-8-29,89.1,83.1,76.5,75.2,73.3,70.6,93,74,60,29.81,29.72,14,3,14,0.00
2013-8-30,91.0,84.9,78.3,79.1,73.8,67.8,96,71,52,29.77,29.67,12,3,12,0.00
2013-8-31,89.8,82.4,76.6,78.3,74.2,69.7,96,78,55,29.78,29.65,7,2,7,0.08
2013-9-1,90.7,83.4,76.8,79.0,73.6,65.1,99,75,47,29.76,29.68,9,2,9,0.00
2013-9-2,91.6,83.8,77.4,79.1,73.5,66.6,99,74,49,29.79,29.70,10,2,10,0.00
2013-9-3,90.9,83.7,76.8,80.8,73.9,69.3,99,75,54,29.80,29.70,11,2,11,0.00
2013-9-4,94.5,81.9,75.2,79.3,75.5,68.3,99,83,45,29.86,29.74,13,3,13,0.11
2013-9-5,93.7,82.5,74.5,78.8,75.0,69.6,99,80,49,29.87,29.77,16,4,16,0.24
2013-9-6,91.9,81.7,74.3,78.7,74.5,65.6,96,81,57,29.83,29.71,17,3,17,0.01
2013-9-7,91.4,79.0,71.2,75.2,72.5,66.0,99,83,46,29.80,29.69,15,4,15,0.04
2013-9-8,90.7,81.6,73.6,76.3,71.6,64.0,99,75,45,29.75,29.65,14,5,14,0.00
2013-9-9,93.0,82.8,73.9,75.1,69.6,60.1,99,69,38,29.81,29.71,14,4,14,0.00
2013-9-10,93.0,82.9,74.5,75.2,68.4,56.8,98,67,35,29.86,29.77,15,6,17,0.00
2013-9-11,93.6,83.6,75.4,76.5,69.2,55.4,99,68,32,29.85,29.75,17,6,17,0.00
2013-9-12,90.0,80.4,74.5,77.7,73.0,67.9,99,80,52,29.80,29.65,11,3,11,0.06
2013-9-13,87.8,81.1,74.3,78.5,74.1,69.0,99,81,58,29.68,29.59,11,2,11,0.00
2013-9-14,89.1,83.2,76.3,78.0,73.7,69.4,99,75,55,29.77,29.61,11,2,11,0.00
2013-9-15,95.2,82.5,75.9,76.6,71.2,64.7,96,72,41,29.86,29.73,17,4,17,0.00
2013-9-16,95.4,80.8,74.3,77.7,73.0,64.0,99,81,40,29.85,29.73,12,3,12,0.12
2013-9-17,93.0,81.0,73.8,77.1,72.3,64.4,99,79,43,29.83,29.70,14,4,14,0.01
2013-9-18,92.3,80.5,75.2,76.7,73.3,68.4,99,81,48,29.82,29.73,17,6,20,0.04
2013-9-19,92.1,80.3,74.1,77.3,73.6,65.9,99,83,46,29.83,29.73,11,4,12,0.63
2013-9-20,75.6,75.6,75.4,75.3,75.3,75.1,99,99,99,29.80,29.80,2,2,2,0.00
2013-9-21,75.6,75.6,75.6,75.3,75.3,75.3,99,99,99,29.80,29.80,2,2,2,0.00
2013-9-22,75.6,75.6,75.6,75.3,75.3,75.3,99,99,99,29.80,29.80,2,2,2,0.00
2013-9-23,90.0,82.3,72.1,77.7,72.0,63.3,99,73,42,29.98,29.83,8,2,8,0.70
2013-9-24,89.1,81.2,74.5,81.3,76.7,71.6,99,87,65,29.96,29.84,10,3,10,1.52
2013-9-25,81.9,77.3,71.4,81.1,76.1,71.0,99,96,80,29.99,29.86,10,3,11,2.18
2013-9-26,87.3,81.6,75.4,81.3,77.0,70.4,99,86,72,29.97,29.86,17,5,17,0.01
2013-9-27,84.0,77.0,70.7,73.4,70.8,67.2,99,82,59,30.06,29.96,17,6,17,0.00
2013-9-28,88.0,76.6,71.1,75.5,72.1,67.9,99,87,53,30.09,30.01,13,6,14,0.21
2013-9-29,87.3,77.7,69.6,73.5,69.6,59.9,99,79,41,30.08,29.98,12,5,12,0.00
2013-9-30,89.6,78.5,71.6,76.0,71.1,64.5,99,80,45,30.08,30.00,11,4,11,0.00
2013-10-1,91.4,81.1,73.2,75.9,71.5,63.1,99,75,40,30.14,30.03,13,4,13,0.00
2013-10-2,90.5,80.8,72.3,70.9,69.0,66.0,94,69,46,30.14,30.05,14,5,14,0.00
2013-10-3,90.0,80.2,72.3,75.4,70.8,63.9,93,75,44,30.15,30.06,13,4,13,0.00
2013-10-4,90.1,80.8,75.2,75.7,72.8,63.7,97,78,43,30.17,30.08,10,4,10,0.00
2013-10-5,90.1,80.9,73.8,76.2,72.4,64.7,99,77,44,30.14,30.03,14,4,14,0.00
2013-10-6,90.3,80.7,72.9,76.4,71.6,59.6,99,76,37,30.07,29.94,8,2,8,0.00
2013-10-7,87.4,80.5,74.1,80.1,76.3,73.9,99,88,72,29.95,29.82,15,3,15,0.32
2013-10-8,83.5,80.0,74.8,77.5,74.6,69.9,99,84,72,30.05,29.87,14,5,15,0.00
2013-10-9,79.2,74.6,69.3,70.1,67.9,65.3,88,80,67,30.14,30.03,15,6,15,0.00
2013-10-10,82.4,74.2,65.5,69.1,66.3,64.0,98,78,56,30.15,30.06,14,5,14,0.00
2013-10-11,83.8,75.8,68.0,72.3,66.3,60.0,99,75,50,30.13,30.04,11,2,11,0.00
2013-10-12,83.7,75.7,67.1,69.4,62.8,55.5,98,67,39,30.14,30.06,14,3,14,0.00
2013-10-13,84.6,75.6,66.6,67.3,62.6,53.4,94,66,37,30.18,30.08,13,3,13,0.00
2013-10-14,82.4,75.0,68.4,68.3,65.6,61.7,96,73,53,30.14,30.03,15,5,15,0.00
2013-10-15,78.4,72.2,66.6,71.4,68.7,65.6,99,89,76,30.10,30.00,13,5,13,0.00
2013-10-16,80.8,75.2,71.1,72.5,69.6,65.8,99,84,63,30.06,29.99,11,4,11,0.00
2013-10-17,87.6,77.4,69.6,74.1,71.4,68.6,99,83,55,30.06,29.99,8,2,9,0.00
2013-10-18,90.5,79.3,72.0,75.3,72.6,63.3,99,82,41,30.06,29.98,8,2,8,0.00
2013-10-19,87.6,79.7,73.2,77.1,74.6,70.3,99,85,63,30.03,29.95,6,2,6,0.00
2013-10-20,86.0,79.7,75.2,80.0,74.3,70.0,99,84,61,30.04,29.95,11,2,11,0.17
2013-10-21,88.0,78.7,72.3,75.9,73.4,69.2,99,85,57,30.09,30.00,10,3,10,0.00
2013-10-22,87.6,77.7,73.0,79.1,73.7,67.8,99,89,55,30.03,29.92,16,3,16,0.05
2013-10-23,77.0,74.2,68.0,76.4,63.2,48.6,99,71,41,30.11,29.90,19,6,19,0.05
2013-10-24,68.7,64.5,61.0,55.5,43.4,38.4,63,46,39,30.22,30.11,15,7,15,0.00
2013-10-25,76.3,70.4,57.6,60.5,54.1,43.0,89,58,33,30.33,30.24,14,5,15,0.00
2013-10-26,77.2,66.0,56.1,56.7,54.5,51.7,91,68,41,30.30,30.19,14,4,14,0.00
2013-10-27,75.6,65.5,56.5,57.4,54.1,50.2,98,69,43,30.23,30.14,13,4,13,0.00
2013-10-28,80.2,68.4,58.6,62.8,55.1,47.4,85,65,32,30.29,30.18,13,4,13,0.00
2013-10-29,84.9,73.4,64.6,65.5,61.7,54.2,98,70,37,30.32,30.21,13,6,13,0.00
2013-10-30,85.5,74.7,66.7,67.6,64.9,61.0,95,73,44,30.32,30.17,11,4,11,0.00
2013-10-31,87.1,75.3,66.6,69.4,65.4,57.5,99,74,38,30.22,30.05,9,2,9,0.00
2013-11-1,85.8,77.5,71.1,75.8,72.1,67.9,99,84,58,30.08,29.95,14,3,14,0.00
2013-11-2,78.4,72.0,63.5,77.9,68.6,60.6,99,89,69,30.08,29.88,11,3,11,0.74
2013-11-3,74.8,65.9,58.6,62.5,47.4,30.5,99,57,21,30.22,30.06,14,6,14,0.00
2013-11-4,79.9,69.7,58.8,65.2,54.8,47.5,90,61,36,30.26,30.19,21,8,24,0.01
2013-11-5,84.2,73.6,64.0,67.1,64.6,62.0,99,76,49,30.25,30.14,21,8,21,0.00
2013-11-6,86.4,74.8,68.2,68.8,67.1,62.2,99,79,46,30.20,30.10,11,5,11,0.00
2013-11-7,78.6,71.8,67.3,71.3,68.5,65.5,99,90,68,30.15,30.06,12,3,12,0.00
2013-11-8,78.3,70.6,62.8,71.5,60.2,51.8,99,71,47,30.22,30.09,16,8,16,0.00
2013-11-9,82.9,72.0,61.5,63.7,60.5,57.2,87,68,50,30.25,30.17,14,6,14,0.00
2013-11-10,80.8,71.7,64.8,68.1,64.5,60.6,92,79,52,30.26,30.16,13,4,13,0.00
2013-11-11,81.9,71.4,64.8,67.9,65.5,62.3,99,83,55,30.25,30.15,11,4,12,0.00
2013-11-12,81.1,70.5,64.6,69.3,65.0,52.7,99,84,52,30.21,30.11,17,4,17,0.00
2013-11-13,70.0,60.4,52.2,54.7,46.0,42.4,73,59,46,30.41,30.18,23,12,23,0.05
2013-11-14,77.4,62.8,50.2,54.8,49.4,43.8,86,64,39,30.39,30.25,15,6,15,0.00
2013-11-15,71.1,66.1,61.5,68.3,61.9,54.6,99,86,72,30.27,30.14,8,4,8,0.07
2013-11-16,73.4,70.2,67.6,73.2,70.0,67.4,99,99,96,30.22,30.10,10,3,10,0.43
2013-11-17,85.6,74.8,69.6,74.4,70.1,67.3,99,86,62,30.16,30.08,8,2,8,0.00
2013-11-18,82.6,74.3,68.5,75.7,70.7,68.3,99,90,66,30.11,30.00,8,1,8,0.05
2013-11-19,78.3,71.7,65.7,72.8,66.9,56.4,99,86,57,30.07,29.97,12,4,12,0.01
2013-11-20,77.0,69.2,62.8,72.9,67.4,60.6,99,94,83,30.18,30.06,10,5,10,0.01
2013-11-21,85.3,74.5,68.5,71.6,70.0,68.2,99,87,58,30.26,30.17,14,6,14,0.00
2013-11-22,84.9,75.5,70.0,73.7,68.7,64.1,99,81,52,30.27,30.17,14,4,14,0.00
2013-11-23,81.1,71.5,64.8,70.6,66.8,61.6,99,86,52,30.20,30.11,14,4,14,0.00
2013-11-24,71.1,65.3,57.2,70.6,57.8,47.7,99,77,61,30.33,30.13,20,9,20,0.00
2013-11-25,75.4,66.9,57.2,61.8,55.0,48.3,80,66,52,30.31,30.14,21,7,21,0.00
2013-11-26,80.8,73.3,67.6,76.4,70.6,61.6,99,91,72,30.14,29.84,18,5,18,0.99
2013-11-27,71.8,62.2,48.9,71.5,55.6,37.3,99,79,64,30.30,29.81,25,9,25,0.13
2013-11-28,58.5,49.7,37.0,49.0,39.2,28.2,86,67,48,30.45,30.30,16,7,17,0.00
2013-11-29,72.3,60.5,50.4,55.0,50.7,47.0,94,73,43,30.45,30.35,15,7,15,0.00
2013-11-30,75.9,64.3,55.0,61.1,56.6,46.7,99,78,55,30.41,30.26,16,7,16,0.00
2013-12-1,68.0,61.1,58.6,65.9,60.8,58.4,99,99,87,30.29,30.08,13,5,13,0.00
2013-12-2,68.2,63.2,59.0,64.1,59.2,54.9,99,88,67,30.08,29.93,9,2,10,0.00
2013-12-3,79.9,67.7,56.7,68.8,61.6,56.4,99,83,50,30.06,29.96,8,1,8,0.00
2013-12-4,83.7,72.6,65.3,75.3,68.0,63.7,99,87,53,30.17,30.03,8,1,8,0.00
2013-12-5,84.6,72.6,66.0,71.9,67.2,62.8,99,85,51,30.25,30.15,8,1,8,0.00
2013-12-6,86.2,73.7,66.9,75.1,69.8,66.5,99,89,58,30.25,30.17,11,2,11,0.00
2013-12-7,86.2,73.4,67.5,73.7,68.8,66.5,99,87,53,30.32,30.22,7,1,7,0.00
2013-12-8,86.0,73.1,64.6,74.8,67.7,64.3,99,85,50,30.30,30.17,8,2,8,0.00
2013-12-9,84.6,74.1,66.7,74.7,69.5,65.0,99,87,57,30.26,30.16,13,2,13,0.00
2013-12-10,82.8,73.1,66.2,74.6,70.0,65.9,99,91,63,30.26,30.17,12,2,12,0.05
2013-12-11,82.9,69.1,61.0,69.4,64.5,55.3,99,86,56,30.34,30.24,13,6,13,0.00
2013-12-12,72.1,63.1,51.3,65.5,47.1,20.2,99,64,16,30.42,30.29,17,7,17,0.00
2013-12-13,76.5,61.8,48.4,56.5,48.2,35.8,85,63,37,30.38,30.19,13,5,14,0.00
2013-12-14,81.0,72.7,62.8,74.0,66.7,56.5,97,82,66,30.19,30.01,13,4,13,0.00
2013-12-15,75.0,66.9,58.3,74.8,63.1,51.5,99,88,72,30.23,29.96,24,7,24,0.09
2013-12-16,59.5,54.2,46.6,53.3,45.5,40.8,89,73,58,30.33,30.21,14,6,14,0.00
2013-12-17,68.0,55.1,45.1,53.1,44.3,30.4,92,70,26,30.36,30.25,12,4,12,0.00
2013-12-18,67.3,57.5,49.6,54.7,49.4,40.6,99,77,44,30.39,30.30,14,4,14,0.00
2013-12-19,78.1,59.9,46.2,55.7,49.0,40.3,89,69,36,30.37,30.25,11,3,11,0.00
2013-12-20,86.2,70.1,58.5,65.5,60.8,53.4,92,74,46,30.27,30.17,11,2,11,0.00
2013-12-21,87.3,75.1,66.2,71.5,67.5,64.4,99,79,52,30.21,30.08,11,3,11,0.00
2013-12-22,85.5,76.2,71.1,73.9,70.5,66.8,99,84,58,30.22,30.14,11,3,11,0.00
2013-12-23,86.0,75.7,70.0,76.3,72.6,69.7,99,91,60,30.24,30.16,14,3,14,0.00
2013-12-24,69.8,61.7,50.7,69.4,47.1,18.4,99,66,16,30.36,30.21,21,10,21,0.00
2013-12-25,75.6,59.8,45.3,55.8,45.4,31.8,81,60,46,30.36,30.21,13,6,13,0.00
2013-12-26,78.1,64.4,57.6,62.3,59.1,55.6,99,84,49,30.30,30.18,15,5,15,0.00
2013-12-27,69.4,64.1,59.4,65.3,61.1,56.5,97,90,82,30.34,30.24,18,7,18,0.01
2013-12-28,79.2,71.2,64.0,70.4,67.0,63.6,99,87,68,30.30,30.06,14,5,14,0.00
2013-12-29,74.5,69.6,63.9,74.2,69.0,63.6,99,98,89,30.11,29.99,17,4,17,0.35
2013-12-30,67.8,62.8,59.2,64.1,59.4,52.6,99,89,70,30.30,30.09,12,5,13,0.01
2013-12-31,69.6,62.7,59.2,54.4,50.8,44.3,80,66,41,30.39,30.25,13,5,13,0.00
2014-1-1,62.8,60.6,57.0,62.5,58.3,49.5,99,92,65,30.34,30.13,13,6,13,0.21
2014-1-2,77.2,66.7,60.8,76.2,66.2,54.8,99,98,81,30.13,29.92,29,5,29,0.60